Weather Roundup
Issued by NWS

Home | Current Version | Previous Version | Text Only | Print | Product List | Glossary On
Versions: 1 2 3 4 5 6 7 8 9 10 11 12 13 14 15 16 17 18 19 20 21 22 23 24 25 26 27 28 29 30 31 32 33 34 35 36 37 38 39 40 41 42 43 44 45 46 47 48 49 50
000
NZUS93 KARX 230710
HRRWXR

CURRENT HOURLY OBSERVATIONS ACROSS
MUCH OF THE UPPER MISSISSIPPI VALLEY
NATIONAL WEATHER SERVICE LA CROSSE WI
100 AM CST THU FEB 23 2017


...SOUTHEAST MINNESOTA...


CITY           SKY/WX    TMP DP  RH WIND       PRES   REMARKS
ROCHESTER      CLOUDY    39  37  92 NW17      29.76R WCI  30
ROCHESTER/MAYO CLOUDY    40  36  84 NW14G23   29.76R WCI  33
WINONA         CLOUDY    43  36  75 NW12G17   29.75R
AUSTIN         CLOUDY    39  36  87 NW14G22   29.78R WCI  31
ALBERT LEA     CLOUDY    39  36  87 NW15G22   29.80R WCI  31
DODGE CENTER   MOCLDY    37  36  93 NW15      29.78R WCI  28
PRESTON        CLOUDY    40  37  86 NW13      29.75R WCI  33
OWATONNA       CLOUDY    37  34  87 NW15      29.81R WCI  28
FARIBAULT      CLOUDY    37  34  87 NW16      29.82R WCI  28
$$

...ELSEWHERE IN MINNESOTA...


CITY           SKY/WX    TMP DP  RH WIND       PRES   REMARKS
MINNEAPOLIS    CLOUDY    37  30  75 N15       29.82R WCI  28
INTNL FALLS    CLOUDY    26  20  77 NW7       29.87R WCI  18
DULUTH         CLOUDY    31  28  89 N13G21    29.79R WCI  21
RED WING       CLOUDY    39  34  81 NW13      29.78R WCI  32
REDWOOD FALLS  CLOUDY    35  31  85 N10       29.88R WCI  27
MANKATO          N/A     36  32  85 N17G23    29.85R WCI  26
WORTHINGTON    CLOUDY    32  31  96 N22G28    29.85F WCI  19
FAIRMONT       CLOUDY    36  33  89 N21G28    29.83S WCI  25
$$

...SOUTHWEST WISCONSIN...


CITY           SKY/WX    TMP DP  RH WIND       PRES   REMARKS
LA CROSSE      MOCLDY    47  40  76 NW15      29.71R
PRAIRIE DU CHI CLOUDY    46  40  80 NW16      29.73R
BOSCOBEL       CLOUDY    50  43  77 W6        29.71R
LONE ROCK      CLEAR     47  42  83 W13       29.68R
PLATTEVILLE    CLEAR     46  45  95 W9        29.70R
FORT MC COY    CLOUDY    47  43  87 W9        29.69R
CAMP DOUGLAS   MOCLDY    46  42  85 NW14G22   29.65R
MAUSTON-NEW LI SUNNY     48  42  80 W10       29.65R
VIROQUA        CLOUDY    46  42  88 NW15G21   29.70R
WIS DELLS      CLEAR     47  41  79 W10       29.64R
$$

...ELSEWHERE IN WISCONSIN...


CITY           SKY/WX    TMP DP  RH WIND       PRES   REMARKS
MILWAUKEE      CLEAR     57  45  64 W13       29.60R
MADISON        CLEAR     49  42  77 MISG      29.63R
GREEN BAY      CLEAR     39  38  96 N3        29.57R
EAU CLAIRE     CLOUDY    39  34  82 N12       29.72R WCI  32
BLACK RVR FLS  CLOUDY    47  41  78 NE10G20   29.68R
MEDFORD        CLOUDY    37  35  94 N13       29.63R WCI  28
WAUSAU         CLOUDY    40  39  97 N8        29.59R WCI  34
WIS RAPIDS     MOCLDY    44  41  89 NW10      29.63R
MARSHFIELD     CLOUDY    42  39  89 NW14      29.62R
RICE LAKE      CLOUDY    36  33  90 NW13G21   29.77R WCI  27
$$

...NORTHEAST IOWA...


CITY           SKY/WX    TMP DP  RH WIND       PRES   REMARKS
WATERLOO       CLOUDY    43  38  82 NW16      29.77R
DUBUQUE        CLEAR     46  43  89 NW12      29.70R
DECORAH        CLOUDY    43  41  93 NW8G23    29.73R
MASON CITY     CLOUDY    39  36  89 NW16      29.79S WCI  30
CHARLES CITY   CLOUDY    43  41  93 NW20      29.77R
OELWEIN        CLOUDY    43  43 100 NW22G29   29.75R
$$

...ELSEWHERE IN IOWA...


CITY           SKY/WX    TMP DP  RH WIND       PRES   REMARKS
DES MOINES     PTCLDY    47  41  80 N8        29.78S
IOWA CITY      CLEAR     49  42  77 NW14      29.75R
FORT DODGE     CLOUDY    39  32  75 NW8G21    29.83R WCI  34
MARSHALLTOWN   CLOUDY    41  39  93 NW17      29.77R
CEDAR RAPIDS   CLEAR     43  41  93 NW17      29.74R
$$

...NORTHERN ILLINOIS...


CITY           SKY/WX    TMP DP  RH WIND       PRES   REMARKS
CHICAGO-OHARE  PTCLDY    57  50  77 W12       29.63R
CHICAGO-MIDWAY CLEAR     58  51  78 SW16G22   29.65R
MOLINE         CLEAR    N/A N/A N/A W7        29.70R
ROCKFORD       PTCLDY    50  44  80 W7        29.68R
PEORIA         FOG       49  49 100 CALM      29.71S VSB<1/4
$$

NOTE: "FAIR" INDICATES FEW OR NO CLOUDS BELOW 12,000 FEET WITH NO
SIGNIFICANT WEATHER AND/OR OBSTRUCTIONS TO VISIBILITY. WIND
SPEEDS ARE IN MILES-PER-HOUR.




USA.gov is the U.S. government's official web portal to all federal, state and local government web resources and services.